This demonstration page uses our WeatherBlox Daily Observations layout. Learn more.

Left ArrowRight Arrow

Hourly Observations for February 3, 2016

Temp ( °F °C ) Dew Point ( °F °C ) Humidity (%) Winds ( mph kmh ) Pressure ( in mb ) Visibility ( mi km ) Precip ( " mm )
12:07 am 00:07 Windy with Snow Likely 25 -3.9 21 -6.1 85 85 N 23 37 29.97 1015 2 3 0.00 0.03
12:28 am 00:28 Windy with Snow Likely 25 -4 19 -7 80 80 N 36 57 30.00 1016 1 2 0.00 0.00
12:53 am 00:53 Windy with Snow Likely 24 -4.4 20 -6.7 84 84 NNW 26 43 29.95 1014 3 4 0.00 0.03
1:09 am 01:09 Windy with Snow Likely 24 -4.4 19 -7.2 81 81 NNW 26 43 30.00 1016 2 2 0.00 0.03
1:19 am 01:19 Windy with Snow Likely 24 -4.4 19 -7.2 81 81 NNW 23 37 30.03 1017 3 4 0.00 0.03
1:53 am 01:53 Windy with Snow Likely 22 -5.6 17 -8.3 82 82 NNW 24 39 29.98 1015 3 5 0.00 0.03
2:30 am 02:30 Mostly Cloudy with Light Snow 21 -6 16 -9 80 80 NNW 21 33 30.09 1019 4 6 0.00 0.00
2:53 am 02:53 Cloudy with Light Snow 21 -6.1 15 -9.4 78 78 NW 17 28 30.01 1016 5 8 0.00 0.03
3:53 am 03:53 Mostly Cloudy with Light Snow 19 -7.2 13 -10.6 77 77 NNW 18 30 30.04 1017 5 8 0.00 0.03
4:53 am 04:53 Clear with Light Snow 19 -7.2 12 -11.1 74 74 NNW 16 26 30.05 1018 5 8 0.00 0.03
5:53 am 05:53 Partly Cloudy with Isolated Snow Showers 19 -7.2 12 -11.1 74 74 NNW 12 19 30.07 1018 6 10 0.00 0.03
6:53 am 06:53 Mostly Cloudy with Light Snow 17 -8.3 11 -11.7 77 77 NW 12 19 30.10 1019 6 10 0.00 0.03
7:53 am 07:53 Cloudy with Light Snow 20 -6.7 15 -9.4 81 81 NW 12 19 30.11 1020 5 8 0.00 0.03
8:53 am 08:53 Cloudy 21 -6.1 14 -10 74 74 NNW 12 19 30.14 1021 10 16 0.00 0.03
9:53 am 09:53 Cloudy 21 -6.1 15 -9.4 78 78 NW 7 11 30.18 1022 10 16 0.00 0.03
10:53 am 10:53 Cloudy 23 -5 17 -8.3 78 78 NNW 12 19 30.19 1022 10 16 0.00 0.00
11:53 am 11:53 Cloudy with Light Snow 23 -5 15 -9.4 72 72 NW 13 20 30.21 1023 10 16 0.00 0.03
12:41 pm 12:41 Partly Cloudy 24 -4.4 15 -9.4 68 68 NW 15 24 30.21 1023 10 16 0.00 0.03
12:53 pm 12:53 Mostly Sunny 24 -4.4 15 -9.4 68 68 NW 13 20 30.20 1023 10 16 0.00 0.03
1:53 pm 13:53 Sunny 24 -4.4 15 -9.4 68 68 NW 14 22 30.21 1023 10 16 0.00 0.00
2:53 pm 14:53 Sunny 24 -4.4 15 -9.4 68 68 NW 12 19 30.21 1023 10 16 0.00 0.00
3:03 pm 15:03 Hazy 25 -4 16 -9 69 69 NW 9 15 30.27 1025 3 4 0.00 0.00
3:12 pm 15:12 Hazy 25 -4 16 -9 69 69 NW 10 17 30.27 1025 4 6 0.00 0.00
3:36 pm 15:36 Hazy 25 -4 16 -9 69 69 NW 7 11 30.27 1025 2 3 0.00 0.00
3:45 pm 15:45 Hazy 24 -4.4 15 -9.4 68 68 NW 8 13 30.27 1025 3 5 0.00 0.00
3:53 pm 15:53 Sunny 24 -4.4 15 -9.4 68 68 NW 8 13 30.24 1024 10 16 0.00 0.00
4:53 pm 16:53 Cloudy 24 -4.4 15 -9.4 68 68 WNW 6 9 30.25 1024 10 16 0.00 0.00
5:53 pm 17:53 Cloudy 22 -5.6 13 -10.6 68 68 W 6 9 30.27 1025 10 16 0.00 0.00
6:53 pm 18:53 Mostly Cloudy 19 -7.2 11 -11.7 71 71 WSW 6 9 30.29 1026 10 16 0.00 0.00
7:53 pm 19:53 Clear 15 -9.4 8 -13.3 74 74 SW 5 7 30.30 1026 10 16 0.00 0.00
8:53 pm 20:53 Clear 14 -10 8 -13.3 77 77 WSW 6 9 30.31 1026 10 16 0.00 0.00
9:53 pm 21:53 Clear 14 -10 9 -12.8 80 80 WSW 5 7 30.30 1026 10 16 0.00 0.00
10:53 pm 22:53 Clear 14 -10 10 -12.2 84 84 WSW 6 9 30.29 1026 10 16 0.00 0.00
11:53 pm 23:53 Clear 13 -10.6 9 -12.8 84 84 SW 6 9 30.29 1026 10 16 0.00 0.00

Powered by AerisWeather